^^
Saratoga-Weather Station Historical Data
Daily Summary for January 24, 2021 Units:  English    Metric   Both
Daily Weekly Monthly Yearly Custom
  High: Low: Average:
Temperature: 37.8 °F 33.3 °F 34.7 °F
Dew Point: 33.6 °F 29.7 °F 31.1 °F
Humidity: 94% 74% 86%
Wind Speed: 16.1mph 0mph 3.9mph
Wind Gust: 20mph - -
Wind- - SW
Pressure: 29.6 in 29.3 in -
Precipitation: 0.01 in    
Historical Graphs
 
 
Tabular Data for January 24, 2021
Time Temperature Dew Point Pressure Wind Wind Speed Wind Gust Humidity Rainfall Rate (Hourly) solar
00:04 35.4 °F 33.6 °F 29.3 in West 6.9 mph 11 mph 93% 0.03 in 0 W/m2
00:09 35.2 °F 33.4 °F 29.3 in WNW 4 mph 16 mph 93% 0.02 in 0 W/m2
00:14 35.2 °F 33.4 °F 29.3 in WNW 15 mph 16 mph 93% 0.02 in 0 W/m2
00:19 35.1 °F 33.3 °F 29.3 in WNW 10.1 mph 10 mph 93% 0.01 in 0 W/m2
00:24 35.1 °F 33.3 °F 29.3 in WNW 10.1 mph 16 mph 93% 0.01 in 0 W/m2
00:29 34.9 °F 33.1 °F 29.3 in WSW 6.9 mph 13 mph 93% 0 in 0 W/m2
00:34 34.9 °F 33.3 °F 29.3 in West 6 mph 13 mph 94% 0.01 in 0 W/m2
00:39 34.9 °F 33.1 °F 29.3 in West 10.1 mph 10 mph 93% 0.01 in 0 W/m2
00:44 34.7 °F 33.1 °F 29.3 in SW 4 mph 15 mph 94% 0.01 in 0 W/m2
00:49 34.9 °F 33.3 °F 29.3 in WNW 12.1 mph 18 mph 94% 0.01 in 0 W/m2
00:54 34.9 °F 33.1 °F 29.4 in West 11 mph 19 mph 93% 0.01 in 0 W/m2
00:59 35.1 °F 33.3 °F 29.4 in WNW 13 mph 17 mph 93% 0.01 in 0 W/m2
01:04 35.1 °F 33.3 °F 29.4 in NW 16.1 mph 19 mph 93% 0.01 in 0 W/m2
01:09 35.2 °F 33.1 °F 29.4 in NW 6.9 mph 13 mph 92% 0.01 in 0 W/m2
01:14 35.2 °F 33.1 °F 29.4 in WNW 4 mph 9 mph 92% 0.01 in 0 W/m2
01:19 35.2 °F 33.1 °F 29.4 in WNW 8.1 mph 13 mph 92% 0.01 in 0 W/m2
01:24 35.2 °F 33.1 °F 29.4 in WNW 10.1 mph 15 mph 92% 0.01 in 0 W/m2
01:29 35.2 °F 32.9 °F 29.4 in West 8.1 mph 10 mph 91% 0.01 in 0 W/m2
01:34 35.2 °F 32.9 °F 29.4 in NW 8.1 mph 16 mph 91% 0 in 0 W/m2
01:39 35.2 °F 32.9 °F 29.4 in SW 6 mph 12 mph 91% 0 in 0 W/m2
01:44 35.1 °F 32.7 °F 29.4 in West 8.9 mph 15 mph 91% 0 in 0 W/m2
01:49 35.1 °F 32.7 °F 29.4 in WNW 8.1 mph 18 mph 91% 0 in 0 W/m2
01:54 35.1 °F 32.4 °F 29.4 in WSW 4.9 mph 12 mph 90% 0 in 0 W/m2
01:59 35.1 °F 32.4 °F 29.4 in WSW 6.9 mph 18 mph 90% 0 in 0 W/m2
02:04 34.9 °F 32.2 °F 29.4 in WSW 15 mph 15 mph 90% 0 in 0 W/m2
02:09 34.9 °F 32 °F 29.4 in WSW 10.1 mph 12 mph 89% 0 in 0 W/m2
02:14 34.9 °F 32 °F 29.4 in NW 8.9 mph 12 mph 89% 0 in 0 W/m2
02:19 34.9 °F 32.2 °F 29.4 in WNW 4.9 mph 13 mph 90% 0 in 0 W/m2
02:25 34.9 °F 32 °F 29.4 in West 6.9 mph 15 mph 89% 0 in 0 W/m2
02:30 34.7 °F 31.8 °F 29.4 in WNW 8.9 mph 14 mph 89% 0 in 0 W/m2
02:35 34.5 °F 31.6 °F 29.4 in WNW 8.1 mph 13 mph 89% 0 in 0 W/m2
02:40 34.5 °F 31.6 °F 29.4 in West 8.1 mph 14 mph 89% 0 in 0 W/m2
02:45 34.5 °F 31.6 °F 29.4 in WNW 6.9 mph 13 mph 89% 0 in 0 W/m2
02:50 34.5 °F 31.6 °F 29.4 in WSW 8.1 mph 13 mph 89% 0 in 0 W/m2
02:55 34.3 °F 31.5 °F 29.4 in WNW 6.9 mph 11 mph 89% 0 in 0 W/m2
03:00 34.3 °F 31.5 °F 29.4 in WNW 8.9 mph 10 mph 89% 0 in 0 W/m2
03:05 34.3 °F 31.5 °F 29.4 in WNW 8.9 mph 10 mph 89% 0 in 0 W/m2
03:10 34.3 °F 31.5 °F 29.4 in NW 4.9 mph 15 mph 89% 0 in 0 W/m2
03:15 34.3 °F 31.5 °F 29.4 in West 8.9 mph 10 mph 89% 0 in 0 W/m2
03:20 34.3 °F 31.5 °F 29.4 in WSW 4 mph 14 mph 89% 0 in 0 W/m2
03:25 34.3 °F 31.5 °F 29.4 in WSW 6.9 mph 11 mph 89% 0 in 0 W/m2
03:30 34.2 °F 31.3 °F 29.4 in West 6 mph 14 mph 89% 0 in 0 W/m2
03:35 34.2 °F 31.3 °F 29.4 in WNW 8.9 mph 12 mph 89% 0 in 0 W/m2
03:40 34.2 °F 30.9 °F 29.4 in WSW 4.9 mph 12 mph 88% 0 in 0 W/m2
03:45 34 °F 31.1 °F 29.4 in West 8.1 mph 12 mph 89% 0 in 0 W/m2
03:50 34 °F 30.7 °F 29.4 in WSW 6.9 mph 18 mph 88% 0 in 0 W/m2
03:55 34 °F 30.7 °F 29.4 in West 10.1 mph 11 mph 88% 0 in 0 W/m2
04:00 34 °F 30.7 °F 29.4 in West 10.1 mph 18 mph 88% 0 in 0 W/m2
04:05 33.8 °F 30.6 °F 29.4 in West 6.9 mph 9 mph 88% 0 in 0 W/m2
04:10 33.6 °F 30.4 °F 29.4 in WSW 4.9 mph 9 mph 88% 0 in 0 W/m2
04:15 33.6 °F 30.4 °F 29.5 in West 2.9 mph 13 mph 88% 0 in 0 W/m2
04:20 33.6 °F 30.4 °F 29.5 in WNW 8.9 mph 12 mph 88% 0 in 0 W/m2
04:25 33.6 °F 30.4 °F 29.5 in West 2.9 mph 10 mph 88% 0 in 0 W/m2
04:30 33.8 °F 30.6 °F 29.5 in NW 8.9 mph 13 mph 88% 0 in 0 W/m2
04:35 33.8 °F 30.6 °F 29.5 in WSW 8.9 mph 10 mph 88% 0 in 0 W/m2
04:40 33.8 °F 30.6 °F 29.5 in West 8.9 mph 20 mph 88% 0 in 0 W/m2
04:45 33.8 °F 30.4 °F 29.5 in West 6.9 mph 11 mph 87% 0 in 0 W/m2
04:50 33.8 °F 30.4 °F 29.5 in WNW 4.9 mph 17 mph 87% 0 in 0 W/m2
04:55 33.8 °F 30.4 °F 29.5 in WNW 4.9 mph 10 mph 87% 0 in 0 W/m2
05:00 34 °F 30.6 °F 29.5 in West 2.9 mph 10 mph 87% 0 in 0 W/m2
05:05 34 °F 30.6 °F 29.5 in WNW 4 mph 12 mph 87% 0 in 0 W/m2
05:10 34 °F 30.2 °F 29.5 in West 8.9 mph 14 mph 86% 0 in 0 W/m2
05:15 34 °F 30.2 °F 29.5 in WNW 6.9 mph 15 mph 86% 0 in 0 W/m2
05:20 34 °F 30.6 °F 29.5 in WSW 2.9 mph 9 mph 87% 0 in 0 W/m2
05:25 34 °F 30.6 °F 29.5 in NW 4 mph 15 mph 87% 0 in 0 W/m2
05:30 33.8 °F 30.4 °F 29.5 in WSW 6.9 mph 11 mph 87% 0 in 0 W/m2
05:35 33.8 °F 30.4 °F 29.5 in WNW 8.9 mph 14 mph 87% 0 in 0 W/m2
05:40 33.8 °F 30.4 °F 29.5 in WSW 4.9 mph 11 mph 87% 0 in 0 W/m2
05:45 33.8 °F 30.4 °F 29.5 in West 10.1 mph 11 mph 87% 0 in 0 W/m2
05:50 33.8 °F 30.4 °F 29.5 in West 4 mph 9 mph 87% 0 in 0 W/m2
05:55 33.6 °F 30.2 °F 29.5 in WNW 6.9 mph 7 mph 87% 0 in 0 W/m2
06:00 33.8 °F 30 °F 29.5 in SW 6.9 mph 10 mph 86% 0 in 0 W/m2
06:05 33.8 °F 30.4 °F 29.5 in West 2 mph 8 mph 87% 0 in 0 W/m2
06:10 33.8 °F 30.4 °F 29.5 in West 2.9 mph 9 mph 87% 0 in 0 W/m2
06:15 34 °F 30.6 °F 29.5 in West 6 mph 12 mph 87% 0 in 0 W/m2
06:20 33.8 °F 30.4 °F 29.5 in NW 8.1 mph 12 mph 87% 0 in 0 W/m2
06:26 33.8 °F 30.4 °F 29.5 in WNW 4.9 mph 8 mph 87% 0 in 0 W/m2
06:31 33.8 °F 30.6 °F 29.5 in West 4 mph 11 mph 88% 0 in 0 W/m2
06:36 33.8 °F 30.6 °F 29.5 in WNW 2.9 mph 12 mph 88% 0 in 0 W/m2
06:41 34 °F 30.6 °F 29.5 in WSW 8.9 mph 17 mph 87% 0 in 0 W/m2
06:46 34 °F 30.6 °F 29.5 in WNW 10.1 mph 12 mph 87% 0 in 0 W/m2
06:51 34 °F 30.6 °F 29.5 in West 8.9 mph 17 mph 87% 0 in 0 W/m2
06:56 34 °F 30.6 °F 29.5 in West 8.9 mph 11 mph 87% 0 in 0 W/m2
07:01 34 °F 30.6 °F 29.5 in West 6 mph 9 mph 87% 0 in 0 W/m2
07:06 34 °F 30.6 °F 29.5 in WSW 4.9 mph 12 mph 87% 0 in 0 W/m2
07:11 33.8 °F 30.4 °F 29.5 in WSW 8.1 mph 17 mph 87% 0 in 0 W/m2
07:16 33.8 °F 30.4 °F 29.5 in WSW 12.1 mph 13 mph 87% 0 in 0 W/m2
07:21 33.8 °F 30.6 °F 29.5 in WNW 2.9 mph 17 mph 88% 0 in 0 W/m2
07:26 33.6 °F 30.4 °F 29.5 in West 6.9 mph 12 mph 88% 0 in 0 W/m2
07:31 33.6 °F 30.4 °F 29.5 in WSW 11 mph 16 mph 88% 0 in 0 W/m2
07:36 33.6 °F 30.4 °F 29.5 in WSW 4 mph 10 mph 88% 0 in 0 W/m2
07:41 33.6 °F 30.4 °F 29.5 in NW 6.9 mph 16 mph 88% 0 in 0 W/m2
07:46 33.6 °F 30.4 °F 29.5 in NNW 4.9 mph 11 mph 88% 0 in 0 W/m2
07:51 33.6 °F 30.4 °F 29.5 in NW 6 mph 15 mph 88% 0 in 0 W/m2
07:56 33.4 °F 30.2 °F 29.5 in West 8.1 mph 12 mph 88% 0 in 0 W/m2
08:01 33.4 °F 30.6 °F 29.5 in West 6.9 mph 13 mph 89% 0 in 0 W/m2
08:06 33.4 °F 30.6 °F 29.5 in SW 6.9 mph 10 mph 89% 0 in 0 W/m2
08:11 33.4 °F 30.6 °F 29.5 in NW 2.9 mph 13 mph 89% 0 in 0 W/m2
08:16 33.4 °F 30.6 °F 29.5 in West 6 mph 9 mph 89% 0 in 0 W/m2
08:21 33.4 °F 30.6 °F 29.5 in WSW 8.9 mph 12 mph 89% 0 in 0 W/m2
08:26 33.4 °F 30.2 °F 29.5 in WSW 8.9 mph 13 mph 88% 0 in 5 W/m2
08:31 33.4 °F 30.2 °F 29.5 in West 4 mph 10 mph 88% 0 in 7 W/m2
08:36 33.4 °F 30.2 °F 29.5 in West 4 mph 8 mph 88% 0 in 9 W/m2
08:41 33.3 °F 30 °F 29.5 in WNW 6 mph 8 mph 88% 0 in 11 W/m2
08:46 33.3 °F 30 °F 29.5 in SSW 11 mph 11 mph 88% 0 in 12 W/m2
08:51 33.3 °F 30 °F 29.6 in WNW 4.9 mph 11 mph 88% 0 in 23 W/m2
08:56 33.3 °F 30 °F 29.6 in West 8.9 mph 14 mph 88% 0 in 16 W/m2
09:01 33.4 °F 30.2 °F 29.6 in WSW 2.9 mph 12 mph 88% 0 in 14 W/m2
09:06 33.4 °F 30.2 °F 29.6 in WSW 4 mph 14 mph 88% 0 in 21 W/m2
09:11 33.4 °F 30 °F 29.6 in West 4 mph 12 mph 87% 0 in 26 W/m2
09:16 33.4 °F 30 °F 29.6 in WNW 2 mph 5 mph 87% 0 in 21 W/m2
09:21 33.4 °F 30 °F 29.6 in WNW 8.9 mph 11 mph 87% 0 in 19 W/m2
09:26 33.4 °F 29.7 °F 29.6 in West 2.9 mph 7 mph 86% 0 in 26 W/m2
09:31 33.4 °F 30 °F 29.6 in West 6 mph 11 mph 87% 0 in 35 W/m2
09:36 33.3 °F 29.8 °F 29.6 in West 6 mph 9 mph 87% 0 in 32 W/m2
09:41 33.4 °F 30.2 °F 29.6 in WNW 8.1 mph 11 mph 88% 0 in 42 W/m2
09:46 33.4 °F 30.2 °F 29.6 in WSW 2 mph 10 mph 88% 0 in 44 W/m2
09:51 33.4 °F 30.2 °F 29.6 in NW 2 mph 9 mph 88% 0 in 58 W/m2
09:56 33.6 °F 30.2 °F 29.6 in West 2.9 mph 11 mph 87% 0 in 60 W/m2
10:01 33.6 °F 30.2 °F 29.6 in West 0.9 mph 7 mph 87% 0 in 74 W/m2
10:06 33.6 °F 30.2 °F 29.6 in WNW 8.9 mph 13 mph 87% 0 in 98 W/m2
10:11 33.6 °F 29.8 °F 29.6 in West 0.9 mph 6 mph 86% 0 in 65 W/m2
10:16 33.8 °F 30 °F 29.6 in WSW 0.9 mph 7 mph 86% 0 in 79 W/m2
10:21 33.8 °F 30 °F 29.6 in West 2 mph 3 mph 86% 0 in 111 W/m2
10:26 33.8 °F 30 °F 29.6 in NW 2.9 mph 8 mph 86% 0 in 98 W/m2
10:31 33.8 °F 30 °F 29.6 in WNW 2.9 mph 6 mph 86% 0 in 58 W/m2
10:36 33.8 °F 30 °F 29.6 in WSW 0.9 mph 3 mph 86% 0 in 39 W/m2
10:41 33.8 °F 30 °F 29.6 in NW 2 mph 2 mph 86% 0 in 60 W/m2
10:46 34 °F 30.2 °F 29.6 in WNW 2 mph 5 mph 86% 0 in 35 W/m2
10:51 33.8 °F 30.4 °F 29.6 in WSW 2.9 mph 8 mph 87% 0 in 44 W/m2
10:56 33.8 °F 30.4 °F 29.6 in NW 0.9 mph 4 mph 87% 0 in 54 W/m2
11:01 33.8 °F 30.4 °F 29.6 in West 4 mph 8 mph 87% 0 in 77 W/m2
11:06 34 °F 30.6 °F 29.6 in WSW 2 mph 4 mph 87% 0 in 118 W/m2
11:11 34 °F 30.6 °F 29.6 in WNW 2.9 mph 8 mph 87% 0 in 91 W/m2
11:16 34 °F 30.2 °F 29.6 in WNW 2.9 mph 10 mph 86% 0 in 83 W/m2
11:21 34 °F 30.2 °F 29.6 in WNW 2.9 mph 3 mph 86% 0 in 79 W/m2
11:26 34.2 °F 30.7 °F 29.6 in NNW 2.9 mph 10 mph 87% 0 in 102 W/m2
11:31 34.2 °F 30.7 °F 29.6 in WNW 4 mph 5 mph 87% 0 in 88 W/m2
11:36 34.2 °F 30.4 °F 29.6 in NW 2 mph 8 mph 86% 0 in 142 W/m2
11:41 34.2 °F 30.4 °F 29.6 in WSW 2.9 mph 7 mph 86% 0 in 135 W/m2
11:46 34.3 °F 30.6 °F 29.6 in WNW 4.9 mph 7 mph 86% 0 in 165 W/m2
11:51 34.3 °F 30.4 °F 29.6 in NW 0.9 mph 4 mph 85% 0 in 144 W/m2
11:56 34.5 °F 30.6 °F 29.6 in West 2.9 mph 5 mph 85% 0 in 121 W/m2
12:01 34.5 °F 30.6 °F 29.6 in SSW 2.9 mph 16 mph 85% 0 in 127 W/m2
12:06 34.5 °F 30.2 °F 29.6 in WNW 2.9 mph 6 mph 84% 0 in 128 W/m2
12:11 34.5 °F 30.2 °F 29.6 in NW 4.9 mph 16 mph 84% 0 in 105 W/m2
12:16 34.5 °F 30.2 °F 29.6 in NW 2.9 mph 7 mph 84% 0 in 97 W/m2
12:21 34.7 °F 30.7 °F 29.6 in West 2.9 mph 9 mph 85% 0 in 185 W/m2
12:26 35.1 °F 30.9 °F 29.6 in NW 2.9 mph 12 mph 85% 0 in 244 W/m2
12:31 35.2 °F 30.9 °F 29.6 in WNW 2.9 mph 5 mph 84% 0 in 207 W/m2
12:36 35.4 °F 31.1 °F 29.6 in West 2.9 mph 4 mph 84% 0 in 160 W/m2
12:41 35.6 °F 30.9 °F 29.6 in West 2 mph 4 mph 83% 0 in 91 W/m2
12:46 35.4 °F 30.2 °F 29.6 in WNW 2.9 mph 10 mph 81% 0 in 83 W/m2
12:51 35.2 °F 30.4 °F 29.6 in WSW 2.9 mph 10 mph 82% 0 in 98 W/m2
12:56 35.2 °F 30.4 °F 29.6 in NNW 0.9 mph 3 mph 82% 0 in 107 W/m2
13:01 35.2 °F 30.6 °F 29.6 in WNW 2.9 mph 10 mph 83% 0 in 109 W/m2
13:06 35.4 °F 30.7 °F 29.6 in SW 2 mph 7 mph 83% 0 in 169 W/m2
13:11 35.8 °F 30.7 °F 29.6 in WNW 2 mph 10 mph 82% 0 in 139 W/m2
13:17 36 °F 30.9 °F 29.6 in WSW 2.9 mph 4 mph 82% 0 in 97 W/m2
13:22 36.1 °F 31.1 °F 29.6 in WNW 0.9 mph 5 mph 82% 0 in 102 W/m2
13:27 36.1 °F 30.9 °F 29.6 in WSW 2.9 mph 5 mph 81% 0 in 109 W/m2
13:32 36.1 °F 31.1 °F 29.6 in NW 0.9 mph 2 mph 82% 0 in 135 W/m2
13:37 36.3 °F 31.3 °F 29.6 in WNW 2 mph 3 mph 82% 0 in 118 W/m2
13:42 36.5 °F 31.5 °F 29.6 in WNW 0.9 mph 2 mph 82% 0 in 144 W/m2
13:47 36.7 °F 31.6 °F 29.6 in WSW 0.9 mph 3 mph 82% 0 in 137 W/m2
13:52 36.9 °F 31.8 °F 29.6 in Calm   1 mph 82% 0 in 125 W/m2
13:57 37 °F 31.8 °F 29.6 in WNW 2 mph 7 mph 81% 0 in 158 W/m2
14:02 37 °F 30.7 °F 29.6 in SW 2.9 mph 6 mph 78% 0 in 172 W/m2
14:07 37.2 °F 30.7 °F 29.6 in NW 0.9 mph 1 mph 77% 0 in 169 W/m2
14:12 37.6 °F 30.7 °F 29.6 in WNW 0.9 mph 7 mph 76% 0 in 156 W/m2
14:17 37.8 °F 30.9 °F 29.6 in NW 6.9 mph 8 mph 76% 0 in 155 W/m2
14:22 37.8 °F 30.6 °F 29.6 in WNW 2.9 mph 6 mph 75% 0 in 151 W/m2
14:27 37.8 °F 30.6 °F 29.6 in WNW 4 mph 4 mph 75% 0 in 111 W/m2
14:32 37.8 °F 30.6 °F 29.6 in WNW 2 mph 4 mph 75% 0 in 121 W/m2
14:37 37.8 °F 30.2 °F 29.6 in NW 4 mph 7 mph 74% 0 in 158 W/m2
14:42 37.8 °F 30.2 °F 29.6 in WNW 0.9 mph 2 mph 74% 0 in 151 W/m2
14:47 37.8 °F 30.6 °F 29.6 in WNW 6.9 mph 8 mph 75% 0 in 113 W/m2
14:52 37.6 °F 30 °F 29.6 in Calm   6 mph 74% 0 in 107 W/m2
14:57 37.6 °F 30 °F 29.6 in WNW 2 mph 4 mph 74% 0 in 109 W/m2
15:02 37.6 °F 30 °F 29.6 in NW 2 mph 3 mph 74% 0 in 91 W/m2
15:07 37.6 °F 30.4 °F 29.6 in NE 2.9 mph 3 mph 75% 0 in 90 W/m2
15:12 37.6 °F 30.4 °F 29.6 in West 6 mph 7 mph 75% 0 in 77 W/m2
15:17 37.6 °F 30.4 °F 29.6 in NW 2 mph 2 mph 75% 0 in 77 W/m2
15:22 37.6 °F 30.4 °F 29.6 in ENE 0.9 mph 7 mph 75% 0 in 72 W/m2
15:27 37.6 °F 30.4 °F 29.6 in ENE 2 mph 2 mph 75% 0 in 70 W/m2
15:32 37.6 °F 30.4 °F 29.6 in ENE 0.9 mph 1 mph 75% 0 in 69 W/m2
15:37 37.6 °F 30.7 °F 29.6 in Calm   2 mph 76% 0 in 54 W/m2
15:42 37.6 °F 30.7 °F 29.6 in ENE 0.9 mph 2 mph 76% 0 in 53 W/m2
15:47 37.6 °F 31.1 °F 29.6 in NE 0.9 mph 1 mph 77% 0 in 49 W/m2
15:52 37.4 °F 30.9 °F 29.6 in ENE 2 mph 2 mph 77% 0 in 49 W/m2
15:57 37.4 °F 30.6 °F 29.6 in ESE 0.9 mph 8 mph 76% 0 in 44 W/m2
16:02 37.4 °F 31.1 °F 29.6 in Calm     78% 0 in 40 W/m2
16:07 37.2 °F 30.9 °F 29.6 in SW 0.9 mph 8 mph 78% 0 in 39 W/m2
16:12 37.2 °F 30.7 °F 29.6 in West 0.9 mph 2 mph 77% 0 in 35 W/m2
16:17 37.2 °F 30.7 °F 29.6 in Calm   2 mph 77% 0 in 33 W/m2
16:22 37.2 °F 30.7 °F 29.6 in Calm   1 mph 77% 0 in 35 W/m2
16:28 37 °F 30.7 °F 29.6 in ESE 0.9 mph 2 mph 78% 0 in 40 W/m2
16:32 37 °F 30.7 °F 29.6 in East 0.9 mph 2 mph 78% 0 in 39 W/m2
16:37 37 °F 30.7 °F 29.6 in SE 0.9 mph 2 mph 78% 0 in 28 W/m2
16:42 36.9 °F 30.9 °F 29.6 in Calm   1 mph 79% 0 in 16 W/m2
16:47 36.9 °F 30.6 °F 29.6 in ESE 0.9 mph 1 mph 78% 0 in 12 W/m2
16:52 36.9 °F 31.3 °F 29.5 in Calm     80% 0 in 12 W/m2
16:57 36.7 °F 31.1 °F 29.6 in Calm     80% 0 in 11 W/m2
17:02 36.7 °F 31.5 °F 29.6 in South 0.9 mph 2 mph 81% 0 in 9 W/m2
17:07 36.5 °F 31.3 °F 29.6 in Calm   2 mph 81% 0 in 7 W/m2
17:12 36.3 °F 31.1 °F 29.6 in Calm     81% 0 in 5 W/m2
17:17 36.3 °F 31.3 °F 29.6 in Calm   2 mph 82% 0 in 0 W/m2
17:22 36.3 °F 30.7 °F 29.6 in West 0.9 mph 5 mph 80% 0 in 0 W/m2
17:27 36.5 °F 30.9 °F 29.6 in Calm   3 mph 80% 0 in 0 W/m2
17:32 36.5 °F 30.6 °F 29.5 in WNW 2 mph 2 mph 79% 0 in 0 W/m2
17:37 36.7 °F 30.7 °F 29.5 in NNW 0.9 mph 2 mph 79% 0 in 0 W/m2
17:42 36.7 °F 30.7 °F 29.5 in NNW 0.9 mph 2 mph 79% 0 in 0 W/m2
17:47 36.7 °F 30.7 °F 29.5 in NNE 2 mph 3 mph 79% 0 in 0 W/m2
17:52 36.7 °F 30.7 °F 29.5 in Calm   6 mph 79% 0 in 0 W/m2
17:57 36.5 °F 30.6 °F 29.5 in NNE 2 mph 3 mph 79% 0 in 0 W/m2
18:02 36.5 °F 30.6 °F 29.5 in Calm   6 mph 79% 0 in 0 W/m2
18:07 36.3 °F 30.4 °F 29.5 in NNE 0.9 mph 2 mph 79% 0 in 0 W/m2
18:12 36.3 °F 30.4 °F 29.5 in NE 0.9 mph 4 mph 79% 0 in 0 W/m2
18:17 36.1 °F 30.6 °F 29.5 in NE 2 mph 2 mph 80% 0 in 0 W/m2
18:22 36.1 °F 30.2 °F 29.5 in ENE 0.9 mph 4 mph 79% 0 in 0 W/m2
18:27 36.1 °F 30.6 °F 29.5 in Calm   2 mph 80% 0 in 0 W/m2
18:32 36 °F 30.4 °F 29.5 in Calm   2 mph 80% 0 in 0 W/m2
18:37 36 °F 30.7 °F 29.5 in Calm   1 mph 81% 0 in 0 W/m2
18:42 35.8 °F 30.7 °F 29.5 in Calm   1 mph 82% 0 in 0 W/m2
18:47 35.6 °F 30.9 °F 29.5 in ENE 0.9 mph 2 mph 83% 0 in 0 W/m2
18:52 35.2 °F 30.9 °F 29.5 in Calm     84% 0 in 0 W/m2
18:57 35.1 °F 30.7 °F 29.5 in Calm   1 mph 84% 0 in 0 W/m2
19:02 35.1 °F 30.9 °F 29.5 in Calm   1 mph 85% 0 in 0 W/m2
19:07 34.9 °F 31.1 °F 29.5 in Calm   2 mph 86% 0 in 0 W/m2
19:12 34.7 °F 30.9 °F 29.5 in Calm   1 mph 86% 0 in 0 W/m2
19:17 34.5 °F 30.7 °F 29.5 in Calm   2 mph 86% 0 in 0 W/m2
19:22 34.5 °F 30.7 °F 29.5 in Calm     86% 0 in 0 W/m2
19:27 34.9 °F 30.9 °F 29.5 in Calm   3 mph 85% 0 in 0 W/m2
19:32 35.1 °F 30.9 °F 29.5 in Calm   2 mph 85% 0 in 0 W/m2
19:37 35.1 °F 30.9 °F 29.5 in North 2 mph 2 mph 85% 0 in 0 W/m2
19:42 35.2 °F 31.1 °F 29.5 in NNW 0.9 mph 4 mph 85% 0 in 0 W/m2
19:47 35.1 °F 31.3 °F 29.5 in NE 2 mph 2 mph 86% 0 in 0 W/m2
19:52 35.1 °F 31.6 °F 29.5 in North 2 mph 3 mph 87% 0 in 0 W/m2
19:57 34.9 °F 31.6 °F 29.5 in East 0.9 mph 3 mph 88% 0 in 0 W/m2
20:02 34.7 °F 31.5 °F 29.5 in NE 0.9 mph 3 mph 88% 0 in 0 W/m2
20:07 34.5 °F 31.6 °F 29.5 in East 2 mph 4 mph 89% 0 in 0 W/m2
20:12 34.3 °F 31.6 °F 29.5 in ENE 2 mph 3 mph 90% 0 in 0 W/m2
20:17 34.2 °F 31.5 °F 29.5 in East 0.9 mph 4 mph 90% 0 in 0 W/m2
20:22 34.2 °F 31.8 °F 29.5 in ENE 4 mph 5 mph 91% 0 in 0 W/m2
20:27 34 °F 31.6 °F 29.5 in ESE 2.9 mph 4 mph 91% 0 in 0 W/m2
20:32 33.8 °F 31.6 °F 29.5 in East 2.9 mph 7 mph 92% 0 in 0 W/m2
20:37 33.6 °F 31.5 °F 29.5 in ENE 2 mph 4 mph 92% 0 in 0 W/m2
20:42 33.4 °F 31.6 °F 29.5 in ESE 2.9 mph 8 mph 93% 0 in 0 W/m2
20:47 33.4 °F 31.6 °F 29.5 in East 2 mph 6 mph 93% 0 in 0 W/m2
20:52 33.4 °F 31.6 °F 29.5 in ENE 2 mph 8 mph 93% 0 in 0 W/m2
20:57 33.4 °F 31.6 °F 29.5 in ESE 0.9 mph 6 mph 93% 0 in 0 W/m2
21:02 33.3 °F 31.6 °F 29.5 in ESE 4 mph 4 mph 94% 0 in 0 W/m2
21:07 33.3 °F 31.6 °F 29.5 in SE 4.9 mph 6 mph 94% 0 in 0 W/m2
21:12 33.3 °F 31.6 °F 29.5 in SE 4.9 mph 10 mph 94% 0 in 0 W/m2
21:17 33.3 °F 31.6 °F 29.5 in ESE 2.9 mph 7 mph 94% 0 in 0 W/m2
21:22 33.3 °F 31.6 °F 29.5 in East 2.9 mph 10 mph 94% 0 in 0 W/m2
21:27 33.3 °F 31.6 °F 29.5 in ESE 6.9 mph 7 mph 94% 0 in 0 W/m2
21:32 33.3 °F 31.6 °F 29.5 in ENE 2 mph 8 mph 94% 0 in 0 W/m2
21:37 33.3 °F 31.6 °F 29.5 in ESE 2 mph 6 mph 94% 0 in 0 W/m2
21:42 33.3 °F 31.6 °F 29.5 in NE 4.9 mph 6 mph 94% 0 in 0 W/m2
21:47 33.3 °F 31.6 °F 29.5 in ESE 2 mph 7 mph 94% 0 in 0 W/m2
21:52 33.3 °F 31.6 °F 29.5 in NE 2.9 mph 3 mph 94% 0 in 0 W/m2
21:57 33.3 °F 31.6 °F 29.5 in ENE 2.9 mph 7 mph 94% 0 in 0 W/m2
22:02 33.3 °F 31.6 °F 29.5 in ENE 0.9 mph 3 mph 94% 0 in 0 W/m2
22:07 33.3 °F 31.6 °F 29.5 in North 2 mph 5 mph 94% 0 in 0 W/m2
22:12 33.3 °F 31.6 °F 29.5 in ENE 2 mph 2 mph 94% 0 in 0 W/m2
22:17 33.3 °F 31.6 °F 29.5 in ENE 0.9 mph 1 mph 94% 0 in 0 W/m2
22:23 33.3 °F 31.6 °F 29.5 in Calm   4 mph 94% 0 in 0 W/m2
22:28 33.3 °F 31.6 °F 29.5 in NE 2 mph 4 mph 94% 0 in 0 W/m2
22:33 33.4 °F 31.8 °F 29.5 in North 0.9 mph 2 mph 94% 0 in 0 W/m2
22:38 33.4 °F 31.8 °F 29.5 in Calm   2 mph 94% 0 in 0 W/m2
22:43 33.4 °F 31.8 °F 29.5 in ESE 0.9 mph 3 mph 94% 0 in 0 W/m2
22:48 33.4 °F 31.8 °F 29.5 in Calm   1 mph 94% 0 in 0 W/m2
22:53 33.6 °F 32 °F 29.5 in Calm   1 mph 94% 0 in 0 W/m2
22:58 33.6 °F 32 °F 29.5 in NNE 0.9 mph 2 mph 94% 0 in 0 W/m2
23:03 33.8 °F 32.2 °F 29.5 in Calm   1 mph 94% 0 in 0 W/m2
23:08 34 °F 32.4 °F 29.5 in ENE 2 mph 3 mph 94% 0 in 0 W/m2
23:13 34 °F 32.4 °F 29.5 in Calm   2 mph 94% 0 in 0 W/m2
23:18 34 °F 32.4 °F 29.5 in Calm     94% 0 in 0 W/m2
23:23 34 °F 32.4 °F 29.5 in East 0.9 mph 2 mph 94% 0 in 0 W/m2
23:28 33.8 °F 32.2 °F 29.5 in East 2 mph 2 mph 94% 0 in 0 W/m2
23:33 33.8 °F 32.2 °F 29.5 in East 0.9 mph 2 mph 94% 0 in 0 W/m2
23:38 33.8 °F 32.2 °F 29.5 in ENE 0.9 mph 4 mph 94% 0 in 0 W/m2
23:43 33.8 °F 32.2 °F 29.5 in ENE 4 mph 4 mph 94% 0 in 0 W/m2
23:48 33.8 °F 32.2 °F 29.5 in ENE 0.9 mph 3 mph 94% 0 in 0 W/m2
23:53 33.8 °F 32.2 °F 29.5 in Calm   2 mph 94% 0 in 0 W/m2
23:58 33.8 °F 32.2 °F 29.5 in East 2 mph 4 mph 94% 0 in 0 W/m2
Juneau County Weather
Compliments of Weather Underground - 4 mb